GW4109 Weather Reports


time (UTC)temp
F
wind
direction
speed
knots
gust
knots
rain 1hr
in
rain 24hr
in
rain mn
in
humidity
%
barometer
mb
20260502194327 95 192 1.7 7.8 0.00 0.00 0.00 10 1014.7
20260502193822 96 133 2.6 5.2 0.00 0.00 0.00 10 1014.9
20260502193320 95 114 3.5 7.8 0.00 0.00 0.00 10 1014.9
20260502192815 95 195 2.6 7.8 0.00 0.00 0.00 9 1014.9
20260502192312 96 101 5.2 6.1 0.00 0.00 0.00 10 1014.8
20260502191810 97 132 0.9 2.6 0.00 0.00 0.00 9 1014.8
20260502191308 95 253 1.7 2.6 0.00 0.00 0.00 10 1014.9
20260502190804 94 105 2.6 4.3 0.00 0.00 0.00 10 1015.1
20260502190302 95 86 3.5 8.7 0.00 0.00 0.00 10 1015.1
20260502185757 96 157 1.7 3.5 0.00 0.00 0.00 10 1015.1
20260502185253 95 156 2.6 13.9 0.00 0.00 0.00 11 1014.9
20260502184750 95 154 2.6 6.1 0.00 0.00 0.00 11 1015.0
20260502184246 95 135 0.0 4.3 0.00 0.00 0.00 10 1015.2
20260502183743 95 92 4.3 7.8 0.00 0.00 0.00 10 1015.3
20260502183239 94 104 2.6 5.2 0.00 0.00 0.00 11 1015.4
20260502182734 95 96 3.5 5.2 0.00 0.00 0.00 11 1015.5
20260502182230 94 190 0.9 4.3 0.00 0.00 0.00 11 1015.5
20260502181726 93 183 3.5 5.2 0.00 0.00 0.00 11 1015.6
20260502181220 94 117 1.7 5.2 0.00 0.00 0.00 11 1015.5
20260502180717 94 99 6.1 6.1 0.00 0.00 0.00 10 1015.5
20260502180214 92 286 4.3 4.3 0.00 0.00 0.00 11 1015.5
20260502170137 93 101 0.9 1.7 0.00 0.00 0.00 12 1015.6
20260502164124 91 91 3.5 4.3 0.00 0.00 0.00 16 1015.8
20260502163620 91 86 1.7 2.6 0.00 0.00 0.00 17 1015.9
20260502163117 91 80 0.9 2.6 0.00 0.00 0.00 17 1015.8
20260502162614 90 101 1.7 3.5 0.00 0.00 0.00 18 1015.8
20260502162111 90 93 1.7 2.6 0.00 0.00 0.00 18 1015.9
20260502161608 89 298 0.0 2.6 0.00 0.00 0.00 18 1015.8
20260502161105 89 67 1.7 2.6 0.00 0.00 0.00 19 1015.9
20260502160603 89 87 2.6 2.6 0.00 0.00 0.00 19 1015.9
20260502152010 84 76 0.0 0.9 0.00 0.00 0.00 22 1015.7
20260502151506 83 279 0.9 1.7 0.00 0.00 0.00 23 1015.8
20260502151004 84 205 0.0 0.9 0.00 0.00 0.00 23 1015.8
20260502150501 84 89 0.0 0.9 0.00 0.00 0.00 23 1015.8
20260502130346 66 247 1.7 3.5 0.00 0.00 0.00 33 1014.8
20260502123329 68 69 0.0 1.7 0.00 0.00 0.00 33 1014.7
20260502122826 68 293 0.0 3.5 0.00 0.00 0.00 34 1014.4
20260502122321 68 226 2.6 3.5 0.00 0.00 0.00 34 1014.4
20260502121821 66 60 1.7 1.7 0.00 0.00 0.00 35 1014.4
20260502121317 68 49 0.9 1.7 0.00 0.00 0.00 34 1014.5
20260502120814 68 95 1.7 2.6 0.00 0.00 0.00 33 1014.3
20260502120311 68 191 0.0 1.7 0.00 0.00 0.00 33 1014.2
20260502115809 66 202 0.0 0.9 0.00 0.00 0.00 34 1014.3
20260502115306 66 245 0.0 1.7 0.00 0.00 0.00 35 1014.1
20260502114801 66 168 0.9 1.7 0.00 0.00 0.00 35 1014.1
20260502114258 67 230 0.0 3.5 0.00 0.00 0.00 35 1014.1
20260502113755 68 277 0.0 1.7 0.00 0.00 0.00 35 1014.2
20260502113253 67 209 0.9 1.7 0.00 0.00 0.00 36 1014.3
20260502112751 66 260 1.7 2.6 0.00 0.00 0.00 37 1014.2
20260502112249 66 249 0.9 1.7 0.00 0.00 0.00 37 1014.2
20260502111745 66 232 0.0 2.6 0.00 0.00 0.00 38 1014.2
20260502111243 68 265 1.7 1.7 0.00 0.00 0.00 36 1014.3
20260502110740 69 134 0.0 1.7 0.00 0.00 0.00 37 1014.4
20260502110238 68 236 0.0 0.9 0.00 0.00 0.00 37 1014.2
20260502105736 67 240 0.0 0.9 0.00 0.00 0.00 37 1014.5
20260502105232 66 247 1.7 4.3 0.00 0.00 0.00 37 1014.2
20260502104730 67 245 2.6 2.6 0.00 0.00 0.00 36 1014.2
20260502104227 68 63 0.0 1.7 0.00 0.00 0.00 36 1014.4
20260502103725 69 95 2.6 2.6 0.00 0.00 0.00 35 1014.2
20260502103222 71 334 1.7 2.6 0.00 0.00 0.00 32 1014.0
20260502102719 73 343 2.6 3.5 0.00 0.00 0.00 29 1014.0
20260502102215 72 183 0.0 1.7 0.00 0.00 0.00 29 1013.8
20260502101714 70 134 0.0 1.7 0.00 0.00 0.00 31 1013.8
20260502101212 70 182 0.0 2.6 0.00 0.00 0.00 31 1013.9
20260502100709 70 108 0.0 1.7 0.00 0.00 0.00 33 1013.7
20260502100208 70 213 1.7 2.6 0.00 0.00 0.00 33 1013.6
20260502091142 70 133 0.0 0.9 0.00 0.00 0.00 36 1014.0
20260502090639 71 66 0.0 1.7 0.00 0.00 0.00 34 1013.9
20260502090136 71 210 0.9 1.7 0.00 0.00 0.00 35 1014.0
20260502071533 73 252 0.0 1.7 0.00 0.00 0.00 34 1014.2
20260502071031 73 6 0.0 1.7 0.00 0.00 0.00 35 1014.3
20260502070529 74 315 0.9 1.7 0.00 0.00 0.00 33 1014.2
20260502070027 76 329 0.0 3.5 0.00 0.00 0.00 31 1014.2
20260502065525 77 235 0.0 3.5 0.00 0.00 0.00 27 1014.1
20260502065023 78 221 1.7 4.3 0.00 0.00 0.00 26 1014.2
20260502064521 78 201 1.7 4.3 0.00 0.00 0.00 26 1014.3
20260502064018 77 221 1.7 3.5 0.00 0.00 0.00 28 1014.2
20260502063515 74 254 1.7 4.3 0.00 0.00 0.00 30 1014.3
20260502063013 74 230 0.0 1.7 0.00 0.00 0.00 30 1014.3
20260502062510 74 200 0.0 0.9 0.00 0.00 0.00 30 1014.4
20260502062009 76 139 0.0 1.7 0.00 0.00 0.00 29 1014.2
20260502061506 77 89 0.0 1.7 0.00 0.00 0.00 31 1014.1
20260502061003 78 338 0.9 2.6 0.00 0.00 0.00 31 1014.3
20260502060457 79 246 0.0 0.9 0.00 0.00 0.00 31 1014.1
20260502055954 79 104 2.6 2.6 0.00 0.00 0.00 30 1014.0
20260502055452 80 281 0.0 2.6 0.00 0.00 0.00 29 1014.2
20260502054946 81 185 1.7 2.6 0.00 0.00 0.00 28 1014.1
20260502054444 80 211 0.0 3.5 0.00 0.00 0.00 28 1013.8
20260502053941 80 205 0.9 3.5 0.00 0.00 0.00 28 1014.0
20260502053437 79 72 0.0 1.7 0.00 0.00 0.00 27 1013.9
20260502052935 79 259 0.9 2.6 0.00 0.00 0.00 28 1013.8
20260502052433 79 247 0.9 0.9 0.00 0.00 0.00 27 1014.0
20260502051932 80 53 1.7 2.6 0.00 0.00 0.00 27 1013.9
20260502051429 81 104 1.7 4.3 0.00 0.00 0.00 25 1013.9
20260502050926 82 279 0.9 1.7 0.00 0.00 0.00 24 1013.9
20260502050423 82 236 2.6 3.5 0.00 0.00 0.00 23 1013.8
20260502045920 81 62 1.7 1.7 0.00 0.00 0.00 26 1013.9
20260502045416 82 354 2.6 2.6 0.00 0.00 0.00 25 1013.6
20260502044914 83 291 0.9 2.6 0.00 0.00 0.00 24 1013.6
20260502044409 83 248 1.7 1.7 0.00 0.00 0.00 24 1013.6
20260502043906 84 300 1.7 4.3 0.00 0.00 0.00 22 1013.5
20260502043404 85 304 2.6 4.3 0.00 0.00 0.00 22 1013.7
20260502042903 85 267 2.6 6.1 0.00 0.00 0.00 22 1013.4
20260502042401 85 249 7.0 8.7 0.00 0.00 0.00 22 1013.4
20260502041858 85 241 5.2 6.1 0.00 0.00 0.00 22 1013.3
20260502041355 86 253 5.2 9.6 0.00 0.00 0.00 23 1013.4
20260502040853 86 233 2.6 10.4 0.00 0.00 0.00 23 1013.3
20260502040349 86 240 4.3 5.2 0.00 0.00 0.00 23 1013.2
20260502035845 86 244 4.3 9.6 0.00 0.00 0.00 23 1013.1
20260502035342 86 233 2.6 10.4 0.00 0.00 0.00 23 1013.0
20260502034839 86 253 6.1 8.7 0.00 0.00 0.00 23 1012.8
20260502034338 86 246 2.6 9.6 0.00 0.00 0.00 23 1012.8
20260502033836 86 262 7.8 10.4 0.00 0.00 0.00 23 1012.5
20260502033333 86 286 3.5 11.3 0.00 0.00 0.00 23 1012.5
20260502032830 86 268 3.5 7.8 0.00 0.00 0.00 24 1012.6
20260502032326 86 316 7.8 11.3 0.00 0.00 0.00 24 1012.4
20260502031824 86 274 4.3 15.6 0.00 0.00 0.00 25 1012.3
20260502031322 86 323 7.8 12.2 0.00 0.00 0.00 25 1012.2
20260502030820 86 316 8.7 13.0 0.00 0.00 0.00 26 1012.0
20260502030318 86 319 12.2 14.8 0.00 0.00 0.00 25 1012.3
20260502025815 87 284 7.0 15.6 0.00 0.00 0.00 24 1012.2
20260502025313 87 304 8.7 13.0 0.00 0.00 0.00 24 1011.8
20260502024810 87 309 7.8 13.0 0.00 0.00 0.00 22 1011.8
20260502024308 87 322 7.8 13.9 0.00 0.00 0.00 23 1012.0
20260502023805 87 302 7.8 12.2 0.00 0.00 0.00 23 1012.0
20260502023303 87 303 7.8 12.2 0.00 0.00 0.00 24 1011.7
20260502022800 87 312 7.8 13.0 0.00 0.00 0.00 24 1011.7
20260502022256 87 320 8.7 13.0 0.00 0.00 0.00 24 1011.8
20260502021753 87 286 4.3 15.6 0.00 0.00 0.00 25 1011.6
20260502021251 87 310 11.3 14.8 0.00 0.00 0.00 25 1011.6
20260502020748 88 297 11.3 13.0 0.00 0.00 0.00 24 1011.7
20260502020246 88 300 5.2 13.9 0.00 0.00 0.00 24 1011.7
20260502015743 88 317 12.2 14.8 0.00 0.00 0.00 23 1011.5
20260502015239 88 302 7.8 13.9 0.00 0.00 0.00 24 1011.5
20260502014737 89 306 7.8 12.2 0.00 0.00 0.00 24 1011.5
20260502014233 89 313 3.5 13.9 0.00 0.00 0.00 23 1011.4
20260502013730 90 299 5.2 9.6 0.00 0.00 0.00 22 1011.7
20260502013225 90 290 3.5 7.8 0.00 0.00 0.00 22 1011.6
20260502012722 91 341 6.1 10.4 0.00 0.00 0.00 22 1011.4
20260502012220 91 254 6.1 10.4 0.00 0.00 0.00 21 1011.4
20260502011712 92 320 8.7 11.3 0.00 0.00 0.00 21 1011.4
20260502011207 93 262 7.8 8.7 0.00 0.00 0.00 20 1011.4
20260502010706 93 244 11.3 14.8 0.00 0.00 0.00 20 1011.5
20260502010201 94 262 3.5 9.6 0.00 0.00 0.00 19 1011.5
20260502005658 94 250 6.1 11.3 0.00 0.00 0.00 19 1011.4
20260502005156 95 269 7.8 9.6 0.00 0.00 0.00 19 1011.5
20260502004652 94 254 7.8 11.3 0.00 0.00 0.00 19 1011.4
20260502004148 94 252 5.2 14.8 0.00 0.00 0.00 19 1011.1
20260502003646 94 240 11.3 15.6 0.00 0.00 0.00 19 1011.2
20260502003144 95 262 6.1 10.4 0.00 0.00 0.00 19 1011.4
20260502002640 94 276 5.2 12.2 0.00 0.00 0.00 19 1011.3
20260502002137 94 254 4.3 13.0 0.00 0.00 0.00 19 1011.2
20260502001635 95 278 3.5 7.8 0.00 0.00 0.00 19 1011.4
20260502001132 95 325 4.3 8.7 0.00 0.00 0.00 18 1011.3
20260502000630 96 296 2.6 5.2 0.00 0.00 0.00 18 1011.3
20260502000128 98 64 1.7 2.6 0.00 0.00 0.00 15 1011.4
20260501235623 97 244 2.6 4.3 0.00 0.00 0.00 15 1011.6
20260501235119 97 250 1.7 1.7 0.00 0.00 0.00 14 1011.3
20260501234614 97 210 2.6 4.3 0.00 0.00 0.00 14 1011.3
20260501234112 95 183 4.3 5.2 0.00 0.00 0.00 15 1011.5
20260501233610 96 68 0.0 6.1 0.00 0.00 0.00 15 1011.4
20260501233108 96 50 0.0 1.7 0.00 0.00 0.00 14 1011.3
20260501232603 96 103 0.0 1.7 0.00 0.00 0.00 15 1011.5
20260501232101 96 180 0.9 3.5 0.00 0.00 0.00 15 1011.5
20260501231558 96 136 1.7 3.5 0.00 0.00 0.00 14 1011.5
20260501231056 96 68 0.9 4.3 0.00 0.00 0.00 15 1011.7
20260501230555 94 274 0.0 2.6 0.00 0.00 0.00 15 1011.7
20260501230052 93 93 2.6 3.5 0.00 0.00 0.00 15 1011.6
20260501225549 93 81 5.2 8.7 0.00 0.00 0.00 15 1011.8
20260501225046 94 94 5.2 5.2 0.00 0.00 0.00 15 1011.8
20260501224543 94 14 0.0 4.3 0.00 0.00 0.00 15 1012.0
20260501224040 95 238 2.6 3.5 0.00 0.00 0.00 15 1012.1
20260501223536 96 114 7.0 9.6 0.00 0.00 0.00 14 1011.8
20260501223033 95 104 5.2 5.2 0.00 0.00 0.00 14 1012.2
20260501222529 93 71 0.9 7.0 0.00 0.00 0.00 15 1012.0
20260501222026 92 98 1.7 5.2 0.00 0.00 0.00 15 1012.2
20260501221523 95 115 7.8 9.6 0.00 0.00 0.00 15 1012.4
20260501221021 94 182 0.9 7.8 0.00 0.00 0.00 15 1012.4
20260501220519 96 103 7.0 7.8 0.00 0.00 0.00 14 1012.6
20260501220015 96 128 0.0 3.5 0.00 0.00 0.00 14 1012.6
20260501215511 95 146 1.7 3.5 0.00 0.00 0.00 15 1012.6
20260501215006 97 91 4.3 6.1 0.00 0.00 0.00 14 1012.7
20260501214502 96 114 1.7 3.5 0.00 0.00 0.00 14 1012.9
20260501213958 94 290 2.6 4.3 0.00 0.00 0.00 14 1013.0
20260501213455 96 105 2.6 5.2 0.00 0.00 0.00 14 1013.0
20260501212955 96 123 2.6 5.2 0.00 0.00 0.00 13 1013.2
20260501212453 95 109 1.7 7.0 0.00 0.00 0.00 14 1013.3
20260501211950 96 98 6.1 11.3 0.00 0.00 0.00 14 1013.2
20260501211447 96 149 2.6 4.3 0.00 0.00 0.00 14 1013.4
20260501210944 96 110 6.1 8.7 0.00 0.00 0.00 14 1013.6
20260501210441 96 107 2.6 3.5 0.00 0.00 0.00 14 1013.4
20260501205937 95 180 1.7 5.2 0.00 0.00 0.00 14 1013.5
20260501205434 96 84 0.9 2.6 0.00 0.00 0.00 15 1013.4
20260501204932 93 97 2.6 7.0 0.00 0.00 0.00 15 1013.7
20260501204427 92 188 0.0 5.2 0.00 0.00 0.00 16 1013.6
20260501203924 93 98 5.2 7.0 0.00 0.00 0.00 15 1013.7
20260501203421 96 141 3.5 3.5 0.00 0.00 0.00 15 1013.8
20260501202918 94 146 1.7 3.5 0.00 0.00 0.00 16 1013.7
20260501202415 93 106 6.1 7.8 0.00 0.00 0.00 16 1013.8
20260501201912 93 117 7.8 7.8 0.00 0.00 0.00 17 1013.9
20260501201409 95 116 3.5 9.6 0.00 0.00 0.00 16 1013.7
20260501200905 95 172 3.5 3.5 0.00 0.00 0.00 17 1013.7
20260501200402 93 79 3.5 5.2 0.00 0.00 0.00 17 1013.9
20260501195900 91 121 2.6 7.0 0.00 0.00 0.00 19 1013.9
20260501195355 92 67 1.7 3.5 0.00 0.00 0.00 19 1014.0
20260501194852 93 125 7.8 7.8 0.00 0.00 0.00 19 1014.1